Flag for Spain Weather past 2 weeks in Las Palmas, Canary Islands, Spain

Now
66 °F

Passing clouds.


Feels Like: 66 °F
Forecast: N/A
Wind: 17 mph from Northeast

Location: Las Palmas De Gran Canaria / Gando

Current Time: Dec 20, 2014 at 8:57:28 PM

Latest Report: Dec 20, 2014 at 8:30 PM


Visibility: N/A

Pressure: 30.33 "Hg

Humidity: 78%

Dew point: 59 °F

Location of Las PalmasLocation

Historic Weather in Las Palmas — Graph

°F

Las Palmas temperature yesterday

Maximum temperature yesterday: 72 °F (at 12:30 PM)
Minimum temperature yesterday: 61 °F (at 3:00 AM)
Average temperature yesterday: 66 °F

Past Weeks' High & Low Weather Summary

 TemperatureHumidityPressure
High73 °F (Dec 8, 1:00 PM)94% (Dec 13, 6:30 PM)30.39 "Hg (Dec 13, 6:30 PM)
Low59 °F (Dec 13, 8:00 AM)36% (Dec 12, 2:00 PM)30.09 "Hg (Dec 13, 2:30 PM)
Average66 °F69%30.26 "Hg
* Reported Dec 5 8:00 PM — Dec 20 8:00 PM, Las Palmas, Weather by CustomWeather, © 2014

Note: Actual official high and low records may vary slightly from our data, if they occured in-between our weather recording intervals... More about our weather records

Advertising

Las Palmas weather history for previous 24 hours

 ConditionsComfort  
Time TempWeatherWind HumidityBarometerVisibility
8:00 PM
Dec 20
66 °FPassing clouds.16 mph78%30.33 "HgN/A
7:30 PM66 °FPassing clouds.12 mph78%30.30 "HgN/A
7:00 PM66 °FPassing clouds.13 mph73%30.30 "HgN/A
6:30 PM66 °FPassing clouds.12 mph73%30.30 "HgN/A
6:00 PM66 °FPassing clouds.15 mph73%30.30 "HgN/A
5:30 PM66 °FPassing clouds.15 mph73%30.30 "HgN/A
5:00 PM68 °FPassing clouds.15 mph69%30.30 "HgN/A
4:30 PM68 °FPassing clouds.16 mph73%30.30 "HgN/A
4:00 PM70 °FPassing clouds.16 mph64%30.30 "HgN/A
3:30 PM70 °FPassing clouds.16 mph64%30.33 "HgN/A
3:00 PM70 °FPassing clouds.16 mph64%30.33 "HgN/A
2:30 PM70 °FPassing clouds.16 mph64%30.33 "HgN/A
2:00 PM70 °FPassing clouds.17 mph64%30.33 "HgN/A
1:30 PM70 °FPassing clouds.16 mph64%30.36 "HgN/A
1:00 PM70 °FPassing clouds.16 mph64%30.36 "HgN/A
12:30 PM68 °FPassing clouds.17 mph69%30.39 "HgN/A
12:00 PM68 °FPassing clouds.17 mph69%30.39 "HgN/A
11:30 AM68 °FPassing clouds.16 mph73%30.39 "HgN/A
11:00 AM66 °FScattered clouds.17 mph73%30.39 "HgN/A
10:30 AM66 °FScattered clouds.12 mph73%30.39 "HgN/A
10:00 AM64 °FScattered clouds.10 mph73%30.39 "HgN/A
9:30 AM64 °FPassing clouds.13 mph73%30.39 "HgN/A
9:00 AM64 °FPassing clouds.13 mph73%30.36 "HgN/A
8:30 AM64 °FPassing clouds.13 mph73%30.36 "HgN/A
8:00 AM63 °FPassing clouds.13 mph77%30.36 "HgN/A
7:30 AM63 °FPassing clouds.13 mph77%30.36 "HgN/A
7:00 AM63 °FPassing clouds.13 mph77%30.36 "HgN/A
6:30 AM63 °FPassing clouds.14 mph77%30.33 "HgN/A
6:00 AM63 °FPassing clouds.13 mph77%30.33 "HgN/A
5:30 AM63 °FPassing clouds.12 mph77%30.33 "HgN/A
5:00 AM63 °FPassing clouds.13 mph77%30.33 "HgN/A
4:30 AM63 °FPassing clouds.13 mph77%30.33 "HgN/A
4:00 AM63 °FPassing clouds.12 mph77%30.33 "HgN/A
3:30 AM64 °FPassing clouds.10 mph78%30.36 "HgN/A
3:00 AM64 °FPassing clouds.10 mph78%30.36 "HgN/A
2:30 AM64 °FPassing clouds.9 mph78%30.36 "HgN/A
2:00 AM64 °FPassing clouds.9 mph78%30.36 "HgN/A
1:30 AM64 °FPassing clouds.9 mph78%30.36 "HgN/A
1:00 AM64 °FPassing clouds.10 mph78%30.36 "HgN/A
12:30 AM64 °FPassing clouds.10 mph78%30.36 "HgN/A
12:00 AM64 °FPassing clouds.10 mph83%30.36 "HgN/A
11:30 PM
Dec 19
64 °FPassing clouds.10 mph78%30.36 "HgN/A
11:00 PM64 °FPassing clouds.10 mph78%30.39 "HgN/A
10:30 PM64 °FPassing clouds.10 mph78%30.39 "HgN/A
10:00 PM64 °FPassing clouds.10 mph78%30.36 "HgN/A
9:30 PM64 °FPassing clouds.9 mph78%30.36 "HgN/A
8:30 PM64 °FPassing clouds.12 mph78%30.36 "HgN/A
8:00 PM64 °FPassing clouds.12 mph78%30.36 "HgN/A
Weather by CustomWeather, © 2014

See weather overviewHow to use our weather pages